Location: Baia Mare
(47.6567°N, 23.5850°E)
Time: 18:31:26
(UTC+03:00)

ISS - Pass Details

Date: 06 October 2018
Orbit: 403 x 408 km, 51.6° (Epoch: 21 October)

Event Time Altitude Azimuth Distance (km) Brightness Sun altitude
Rises 20:34:03 0° 293° (WNW) 2,340 1.6 -17.4°
Reaches altitude 10° 20:36:09 10° 293° (WNW) 1,476 0.2 -17.7°
Maximum altitude 20:39:28 87° 204° (SSW) 414 -3.9 -18.3°
Enters shadow 20:39:53 66° 122° (ESE) 450 -3.9 -18.3°
